GFSFLT2_sfc_thetae_273.txt.gz
Theta_e
338 339 339 341 341 342 343 342 340 340 341 341 339 339 339 340 340 340 338 338 339 337 338 335 330 328 326
337 331 334 336 337 338 338 337 334 334 335 336 335 337 339 339 339 338 337 338 338 337 335 331 328 327 325
336 335 328 330 332 333 332 329 329 333 333 331 331 333 337 337 337 337 337 337 335 333 332 328 326 326 326
325 333 334 335 334 334 333 331 332 332 331 332 327 328 332 332 335 336 336 334 329 329 329 326 327 325 325
309 314 329 332 334 334 332 331 329 330 329 329 329 328 329 324 329 332 330 329 326 328 329 327 326 325 324
305 308 312 319 321 326 332 331 329 327 328 328 327 327 328 327 326 325 326 325 325 327 327 326 325 325 324
303 304 306 309 316 317 320 322 330 328 326 327 327 327 327 326 326 324 324 322 323 325 327 327 325 324 323
302 302 303 305 309 314 316 317 315 327 326 326 325 325 326 325 326 324 322 320 319 323 325 326 325 324 323
299 301 303 304 307 307 314 318 320 317 320 326 325 323 324 325 325 324 322 320 318 320 321 324 325 324 323
298 299 301 302 303 305 308 311 313 317 318 318 325 323 324 325 325 324 322 319 318 319 318 318 320 319 322
299 299 299 301 301 302 304 306 310 315 317 313 315 325 324 324 324 323 321 320 317 316 313 306 305 307 310
297 297 298 298 300 301 303 305 308 309 309 310 311 308 324 323 323 322 320 320 317 311 303 295 295 296 299
294 293 294 294 296 297 300 303 305 304 305 308 308 307 304 320 322 322 320 316 313 306 295 293 292 293 293
293 293 293 293 294 295 296 297 299 301 303 306 305 305 306 304 317 321 319 314 309 303 307 299 293 294 292
291 291 290 290 291 291 292 295 297 300 303 304 304 305 308 307 304 318 320 315 306 301 312 306 291 301 289
288 287 286 286 285 288 289 291 294 298 301 303 305 303 304 307 308 307 320 316 312 302 308 308 301 293 297

GFSFLT2_sfc_thetae_276.txt.gz
Theta_e
335 335 337 340 341 343 342 343 340 340 342 342 341 341 342 341 341 340 339 338 338 339 337 336 332 329 326
335 332 330 333 336 338 338 337 334 334 335 336 335 337 339 340 340 340 338 338 338 337 335 333 329 327 323
325 327 330 330 330 331 332 330 330 334 334 332 331 333 338 337 338 338 337 337 335 332 332 328 326 324 324
313 314 324 331 333 334 335 334 333 332 332 332 327 328 332 332 335 337 336 333 330 327 329 326 326 323 325
305 308 311 317 321 317 319 322 332 332 330 331 330 329 330 325 330 333 331 330 327 328 328 326 325 323 325
301 302 305 308 313 317 317 316 313 326 330 330 329 328 328 328 325 326 327 326 326 328 326 326 325 323 324
301 301 302 302 306 310 316 318 317 314 317 328 328 327 327 326 325 326 325 323 324 326 325 325 325 323 324
299 300 300 302 303 305 308 313 318 318 318 314 324 327 326 326 325 325 324 323 323 325 324 324 323 323 323
298 299 300 301 304 302 304 309 310 318 318 317 312 315 326 326 325 325 324 322 321 323 324 324 323 322 321
297 298 299 300 300 301 303 304 306 308 311 315 313 312 318 326 325 324 322 320 319 320 321 323 323 323 322
297 298 298 298 299 300 300 301 303 306 308 313 313 311 311 317 324 324 322 320 318 319 319 321 319 320 322
295 294 295 296 297 298 299 300 302 304 306 310 310 310 309 307 307 323 321 321 319 318 312 305 301 301 303
292 291 291 291 292 293 296 298 300 301 304 303 302 303 307 305 304 304 321 319 318 316 301 298 295 295 297
290 290 290 289 290 290 292 293 295 296 298 298 299 301 305 305 304 304 302 318 318 307 309 303 295 295 293
288 288 288 287 287 287 288 290 293 295 297 297 298 299 302 303 302 302 304 303 313 306 316 308 296 303 293
286 285 284 283 282 285 286 288 289 291 292 294 297 299 300 302 302 303 304 305 307 306 312 314 303 297 303

GFSFLT2_sfc_thetae_279.txt.gz
Theta_e
333 334 336 338 340 341 341 342 341 341 341 343 341 342 342 342 342 341 340 340 339 339 339 337 333 330 335
325 323 329 332 334 334 336 335 334 334 335 336 336 338 341 340 340 339 339 338 339 338 337 333 329 328 330
316 315 325 328 330 331 331 329 328 335 337 336 333 334 338 338 338 339 338 337 335 334 333 330 327 332 329
310 312 315 319 320 319 318 320 326 333 335 334 330 328 332 333 336 337 337 334 330 336 335 329 333 331 331
307 309 312 315 318 320 318 318 317 318 331 331 332 331 333 326 335 335 336 335 334 333 332 330 332 330 331
305 306 307 309 312 314 317 318 316 316 318 320 330 330 330 330 331 334 334 333 331 331 331 328 329 329 331
304 305 305 306 308 309 312 314 318 318 315 315 312 318 329 330 328 328 331 330 330 330 329 327 327 327 328
302 303 304 305 305 308 309 310 312 318 319 317 315 313 310 323 328 327 327 328 329 329 327 327 326 327 326
300 301 302 303 304 305 306 307 309 309 312 317 315 311 311 310 315 326 325 326 327 327 326 326 325 325 325
299 300 300 301 302 303 304 305 305 306 307 308 312 312 313 314 311 315 324 322 322 323 324 324 323 323 323
297 298 298 298 299 300 301 302 302 304 305 306 307 311 312 310 308 309 312 323 320 320 322 323 323 322 321
295 295 295 295 296 298 299 300 300 301 302 304 305 307 312 309 307 306 305 306 321 320 319 319 322 322 322
292 291 290 290 292 292 294 295 296 297 299 302 304 305 307 308 307 306 305 304 304 320 314 301 299 300 305
290 290 289 289 290 290 291 292 293 295 296 297 298 300 301 302 304 305 304 303 304 307 312 310 301 301 299
288 288 288 288 288 287 288 290 291 293 295 296 297 298 298 299 300 304 304 303 300 305 310 310 298 305 296
287 286 285 284 283 285 286 288 289 290 291 293 294 294 295 299 299 301 304 303 302 300 307 312 311 302 305

GFSFLT2_sfc_thetae_282.txt.gz
Theta_e
327 329 334 334 336 337 339 340 340 340 341 341 341 342 342 342 342 341 342 340 340 340 340 338 334 332 336
319 321 328 330 330 329 328 329 330 333 335 335 334 338 341 341 341 340 339 339 339 339 337 335 331 330 335
315 314 320 321 321 320 320 322 325 333 336 335 333 333 338 338 339 339 338 337 335 334 334 331 328 335 333
310 315 316 316 317 318 318 317 318 320 325 330 328 328 331 332 335 337 337 334 330 333 334 329 334 333 333
312 312 313 314 315 317 316 318 319 318 320 327 333 334 332 327 333 335 335 336 335 333 333 332 332 333 332
310 310 311 311 312 312 314 314 316 318 319 318 319 317 330 332 330 333 336 336 334 333 332 332 331 332 331
308 309 309 309 309 310 311 313 314 314 315 318 317 315 315 318 329 329 330 331 333 332 332 331 330 331 332
306 307 307 308 308 309 310 311 311 312 312 314 315 316 315 313 312 314 327 328 328 330 331 330 329 329 331
304 305 306 306 306 307 307 309 309 310 310 310 311 314 316 314 313 311 310 327 326 327 327 329 329 330 331
302 303 303 303 304 304 304 305 306 307 308 308 308 309 314 314 313 313 309 308 324 325 325 325 328 329 329
301 301 301 301 301 301 302 303 304 305 305 305 306 307 309 312 312 312 310 308 308 321 324 324 324 326 327
299 299 299 299 299 299 299 300 300 300 301 302 303 305 307 308 312 312 309 309 308 308 313 322 323 324 325
296 295 295 294 295 296 297 298 297 298 298 299 299 301 304 305 307 310 310 308 307 307 305 315 319 321 321
294 293 293 293 293 294 294 295 295 296 297 297 297 298 300 301 303 305 308 307 307 308 304 308 305 304 303
292 292 292 292 292 292 293 293 294 295 295 296 296 298 298 299 299 301 302 303 303 306 307 305 304 306 305
291 290 289 288 288 290 291 292 292 293 293 294 294 295 295 296 297 300 300 302 305 303 306 308 310 308 304